SL-14 DEB, 45356

Orbit data source: Space-Track

SL-14 DEB, 45356 is space debris in LEO originally from a launch on Thu, 15 Aug 1991 UTC launched from the Plesetsk Missile And Space Complex (PKMTR). Debris objects in space refer to the collection of defunct objects orbiting the Earth. Examples of debris include non-operational satellites, rocket bodies, and fragments generated from explosions, collisions, or faulty payload assembly.

Loading next visibility...
Identifier
45356, 1991-056CQ
Orbit
LEO
Country
Flag of CISCIS
Related business
Manufacturer
Unknown
Mission
Spacecraft
Bus & Motor
Unknown
Mass
Unknown
Launch date (UTC)
1991-08-15 (34 years ago)
Launch vehicle
Unknown
Launch site
Plesetsk Missile And Space Complex (PKMTR)
Object type
Payload
Rocket body
Debris
Shape & HBR
Unknown shape, 0.1 m
Radar Cross Section
Small (<0.1 m²)

Expand to show TLE details & history
Last TLE update: 15 hours ago

TLE from 15 hours ago
0 SL-14 DEB
1 45356U 91056CQ  26036.52386720  .00000491  00000-0  10704-2 0  9992
2 45356  82.6107 221.1332 0042862 299.4698  60.2157 13.26849211286972
Epoch: 2026-02-05T12:34Z
TLE epoch observation values (Epoch: 2026-02-05T12:34:22.126Z)
Latitude
-0°
Longitude
-103.13386°
Altitude
1,145.549 km
Speed
7.288 km/s
True Right ascension
14h 44m 31s
True Declination
0° 00' 00"
Sunlit
Object was in daylight at epoch
Visualization orbit readout
Latitude
Unknown
Longitude
Unknown
Altitude
Unknown
Speed
Unknown
Apparent Right ascension
Unknown
Apparent Declination
Unknown
Sunlit
N/A
Visualization observer readout
Local Sidereal Time
05:45:27
Azimuth
Unknown
Elevation
Unknown
Doppler factor
Unknown
Orbital elements
Apogee altitude
1,188.192 km
Perigee altitude
1,123.607 km
Semi-major axis
7,534.037 km
Eccentricity
0.00429
Inclination
82.6107°
RAAN
221.1332°
Arg. of periapsis
299.4698°
True anomaly
60.64311°
Mean anomaly
60.2157°
Eccentric anomaly
60.42929°
Mean motion
3.31896 °/min
Orbital period
108.47 mins
BSTAR
0.0010704
Loading maneuver chart data...
Computing Atmospheric mass density...
Loading historical data...
Loading historical data...
Loading historical data...
Loading historical data...
Loading historical data...
Loading historical data...
Loading historical data...

Documentation

Showing up to 5 results
|